Welcome to the New NWS' Forecast!
Most changes are behind the scenes, but click here for differences you might notice.

Regional Weather Roundup (RWR)

Issued by National Weather Service (NWS)

                            
000
ASUS42 KTBW 190816
RWRFL 
FLORIDA REGIONAL WEATHER ROUNDUP
NATIONAL WEATHER SERVICE TAMPA BAY RUSKIN FL
300 AM EST MON NOV 19 2018

NOTE: "FAIR" INDICATES FEW OR NO CLOUDS BELOW 12,000 FEET WITH NO
SIGNIFICANT WEATHER AND/OR OBSTRUCTIONS TO VISIBILITY.

FLZ001>010-012>015-112-114-115-190900-
PANHANDLE FLORIDA
  
CITY           SKY/WX    TMP DP  RH WIND       PRES   REMARKS
PENSACOLA      FAIR      52  47  83 N3        30.15S                  
CRESTVIEW      FAIR      41  40  96 CALM      30.17S FOG              
DUKE FIELD     FAIR      43  43  99 CALM      30.15S                  
VALPARAISO     FAIR      46  44  91 N5        30.14S WCI  44          
MARY ESTHER    FAIR      47  45  92 CALM      30.14R                  
PANAMA CITY    FAIR      46  44  93 CALM      30.13F                  
TYNDALL AFB    FAIR      50  48  95 N2        30.16S                  
APALACHICOLA   FAIR      49  45  86 NE3       30.12F                  

STATION/POSITION SKY/WX   TEMP    WIND        PRES    WAVE   SWELL
                          AIR SEA DIR/SP/G            HT/PER HT/PER
                          (F)     (DEG/KT/KT) (MB)    (FT/S) (FT/S)
30.1N   87.6W              63                 1021.0F   1
29.2N   88.2W                 72  360/  4/  6 1021.1F   1
PANAMA CITY BEAC           51 69   10/  6/  9 1020.7F
TOWER C                    65      10/ 12/ 13 1019.8F

$$
FLZ011-016>038-118-127-128-134-139-239-190900-
NORTH FLORIDA
  
CITY           SKY/WX    TMP DP  RH WIND       PRES   REMARKS
MARIANNA       FAIR      46  45  96 CALM      30.14F                  
TALLAHASSEE    FAIR      45  44  97 W5        30.14R WCI  43          
PERRY          FOG       49  48  97 CALM      30.13S VSB 3/4          
LIVE OAK       FOG       54  54 100 CALM      30.12F VSB 1/4          
CROSS CITY     FAIR      52  51  97 CALM      30.11F                  
LAKE CITY      FOG       55  55 100 CALM      30.12F VSB 1/4          
GAINESVILLE    CLOUDY    57  56  96 NW3       30.14S FOG              
WILLISTON        N/A    N/A N/A N/A MISG        N/A                   
MAYPORT NAS    CLOUDY    63  62  97 NW6       30.11S FOG              
JACKSONVILLE   FOG       58  58 100 N5        30.12S VSB 1/4          
JAX NAS        FOG       62  62 100 N7        30.12S VSB 1/4          
JAX CECIL      FOG       59  59 100 N5        30.13R VSB<1/4          
FERNANDINA BEA FOG       61  61 100 N7        30.12S VSB 1/2          
ST AUGUSTINE   FAIR      64  63  96 NW5       30.12S                  
PALM COAST     FAIR      62  62  98 CALM      30.10S                  

STATION/POSITION SKY/WX   TEMP    WIND        PRES    WAVE   SWELL
                          AIR SEA DIR/SP/G            HT/PER HT/PER
                          (F)     (DEG/KT/KT) (MB)    (FT/S) (FT/S)
SHELL POINT      NOT AVBL
KEATON BEACH               56     360/  2/  3 1020.0F
CEDAR KEY                  60      10/  5/  7 1019.7F
FERNANDINA                 62 66  320/  4/  6 1020.8S
30.7N   81.3W                 68                N/A     3/10   2/11
MAYPORT                    62 68  320/  4/  6 1020.1S
31.4N   80.9W              67 68   20/  4/  6 1020.0R   3/ 9   3/ 9
ST AUGUSTINE               65 70  320/  5/  6 1019.5S

$$
FLZ040-043>046-052-053-057-058-063-144-190900-
INTERIOR CENTRAL FLORIDA
  
CITY           SKY/WX    TMP DP  RH WIND       PRES   REMARKS
OCALA          FOG       57  57 100 N3        30.12R VSB 1/2          
LEESBURG       CLOUDY    62  62 100 CALM      30.10F                  
SANFORD        MOCLDY    64  64 100 CALM      30.09S                  
ORLANDO EXEC   MOCLDY    67  64  90 NE6       30.08F                  
ORLANDO INTL   MOCLDY    67  63  87 NE5       30.08F                  
KISSIMMEE      CLOUDY    68  64  87 NE6       30.09F                  
WINTER HAVEN   CLOUDY    68  64  87 NE5       30.09S                  
LAKELAND       CLOUDY    64  63  94 CALM      30.09S                  
BARTOW         CLOUDY    66  66 100 CALM      30.08S                  
SEBRING        PTSUNNY   69  66  90 N3        30.07S                  
OKEECHOBEE     CLOUDY    68  66  94 CALM      30.06S                  

$$
FLZ041-047-054-059-064-141-147-190900-
EAST CENTRAL FLORIDA
  
CITY           SKY/WX    TMP DP  RH WIND       PRES   REMARKS
DAYTONA BEACH  FAIR      64  64 100 NW5       30.09S                  
DELAND         FAIR      63  61  94 NW3       30.09S                  
JFK SPACE CTR  FAIR      65  63  94 CALM        N/A                   
CAPE CANAVERAL CLOUDY    69  66  93 NW3       30.06S                  
PATRICK AFB    FAIR      72  71  97 NW6       30.06F                  
MELBOURNE      CLOUDY    69  66  90 NW3       30.06F                  
VERO BEACH     CLOUDY    73  69  87 E3        30.06S                  
FT PIERCE      CLOUDY    70  67  90 CALM      30.06S                  
STUART         CLOUDY    72  66  83 N3        30.06F                  

STATION/POSITION SKY/WX   TEMP    WIND        PRES    WAVE   SWELL
                          AIR SEA DIR/SP/G            HT/PER HT/PER
                          (F)     (DEG/KT/KT) (MB)    (FT/S) (FT/S)
28.5N   80.2W              78     130/  8/ 10 1018.2F   4/ 9   5/ 9
28.9N   78.5W              76 81  100/  8/ 12 1019.0S
TRIDENT PIER               69 76  330/  2/  4 1019.6F
28.4N   80.5W                 76                N/A     3/ 9   2/11
27.5N   80.2W                 77                N/A     4/ 9   2/11

$$
FLZ050-056-061-142-242-148-248-149-249-151-251-155-255-
160-260-190900-
WEST CENTRAL FLORIDA
  
CITY           SKY/WX    TMP DP  RH WIND       PRES   REMARKS
CRYSTAL RIVER  CLOUDY    59  57  94 CALM      30.11S                  
BROOKSVILLE    FAIR      60  58  92 CALM      30.10F                  
CLEARWATER AIR MOCLDY    64  57  77 NE3       30.08S                  
ST PETE CLEARW MOCLDY    66  62  87 N7        30.08F                  
TAMPA INTL     FAIR      65  60  84 N5        30.09S                  
TAMPA EXEC     MOCLDY    61  59  94 CALM      30.09F                  
PLANT CITY     CLOUDY    66  63  88 CALM      30.10S                  
MACDILL AFB    FAIR      64  59  84 N3          N/A                   
PETER O KNIGHT FAIR      64  63  94 N6        30.08F                  
ST PETERSBURG  MOCLDY    68  63  84 N7        30.06S                  
SARASOTA       CLOUDY    68  63  84 N3        30.06S                  
VENICE         MOCLDY    70  64  83 NE3       30.07F                  

STATION/POSITION SKY/WX   TEMP    WIND        PRES    WAVE   SWELL
                          AIR SEA DIR/SP/G            HT/PER HT/PER
                          (F)     (DEG/KT/KT) (MB)    (FT/S) (FT/S)
CLEARWATER BEACH           67 72   40/  5/  8 1018.9F
MIDDLE TAMPA BAY           69      60/ 10/ 11 1018.5F
VENICE                     70 74   50/  4/  4 1018.3S

$$
FLZ066-069-070-075>078-162-262-165-265-190900-
SOUTHWEST FLORIDA AND KEYS
  
CITY           SKY/WX    TMP DP  RH WIND       PRES   REMARKS
PUNTA GORDA    CLOUDY    70  67  90 SW3       30.08F                  
FT MYERS       CLOUDY    70  67  90 NE7       30.05F                  
SOUTHWEST INTL CLOUDY    69  66  90 NE6       30.05F                  
NAPLES         CLOUDY    70  67  90 NE5       30.04F                  
MARCO ISLAND   CLOUDY    70  68  93 NE6       30.05F                  
IMMOKALEE      CLOUDY    70  68  94 NW5       30.05F                  
MARATHON       CLOUDY    78  71  79 E5        30.02F                  
KEY WEST NAS   FAIR      77  72  84 E6        30.01F                  
KEY WEST INTL  FAIR      80  72  76 E8        30.02F                  

STATION/POSITION SKY/WX   TEMP    WIND        PRES    WAVE   SWELL
                          AIR SEA DIR/SP/G            HT/PER HT/PER
                          (F)     (DEG/KT/KT) (MB)    (FT/S) (FT/S)
NAPLES                     71 75   50/  3/  4 1017.2F
26.0N   85.6W              76 80   40/ 16/ 19 1017.1F   4/ 6
DRY TORTUGAS               78     100/ 13/ 14 1015.9F
SAND KEY                   79                 1016.1F
SOMBRERO KEY               80      80/ 11/ 13 1015.9F
LONG KEY                   77 76  360/  1/  1 1016.6F
MOLASSES REEF              79 81   80/  6/  8 1017.0F

$$
FLZ067-068-071>074-168-172>174-190900-
SOUTHEAST FLORIDA 
  
CITY           SKY/WX    TMP DP  RH WIND       PRES   REMARKS
W PALM BEACH   MOCLDY    71  71 100 SW6       30.06S                  
FT LAUDER-EXEC MOCLDY    77  69  76 NE5       30.04F                  
FT LAUDERDALE  MOCLDY    77  71  82 SE6       30.03F                  
POMPANO BEACH  CLOUDY    77  71  82 E6        30.04F                  
PEMBROKE PINES FAIR      76  69  79 CALM      30.05F                  
OPA LOCKA      FAIR      74  70  87 CALM      30.04F                  
MIAMI          FAIR      75  69  81 SE3       30.04S                  
WEST KENDALL   MOCLDY    73  68  84 CALM      30.04S                  
HOMESTEAD      CLOUDY    73  69  87 CALM      30.03S                  

STATION/POSITION SKY/WX   TEMP    WIND        PRES    WAVE   SWELL
                          AIR SEA DIR/SP/G            HT/PER HT/PER
                          (F)     (DEG/KT/KT) (MB)    (FT/S) (FT/S)
PORT EVERGLADES            79     140/  7/ 10 1017.1F
VIRGINIA KEY               78 78   90/  5/  7 1016.7F
LAKE WORTH                 73 80  170/  4/  8 1018.6F
FOWEY ROCKS                79 79  110/  9/ 10 1017.6F
SETTLEMENT POINT           76      90/  9/  9 1017.7F

$$